Stations météo

réclame
Mon MeteoGroup
Farnborough, Grande-Bretagne (3768): Température de l'air & dewpoint: 17.10.2018 06:00:00 - 23.10.2018 06:00:00 (BST)Farnborough, Grande-Bretagne (3768): Température de l'air -100cm: 17.10.2018 06:00:00 - 23.10.2018 06:00:00 (BST)Farnborough, Grande-Bretagne (3768): Vitesse du vent: 17.10.2018 06:00:00 - 23.10.2018 06:00:00 (BST)Farnborough, Grande-Bretagne (3768): Direction du vent: 17.10.2018 06:00:00 - 23.10.2018 06:00:00 (BST)Farnborough, Grande-Bretagne (3768): reduced air pressure: 17.10.2018 06:00:00 - 23.10.2018 06:00:00 (BST)Farnborough, Grande-Bretagne (3768): visibility: 17.10.2018 06:00:00 - 23.10.2018 06:00:00 (BST)Farnborough, Grande-Bretagne (3768): Quantités de précipitations: 17.10.2018 06:00:00 - 23.10.2018 06:00:00 (BST)
Date & Time tt [°C] td [°C] tt -100cm [°C] ff [km/h] ff [knt] dd ppp [hPa] vv [km] rr [mm]
23.10.2018 06:00:00 6,0 4,2 - 5 3 W 1033,7 26 0,0
23.10.2018 05:00:00 5,7 4,0 - 8 4 WSW 1033,7 28 0,0
23.10.2018 04:00:00 5,4 3,4 - 5 3 WSW 1034,5 26 0,0
23.10.2018 03:00:00 6,0 4,0 - 9 5 WSW 1035,2 27 0,0
23.10.2018 02:00:00 5,3 3,8 - 8 4 WSW 1035,8 29 0,0
23.10.2018 01:00:00 3,3 2,8 - 8 4 WSW 1036,9 25 0,0
23.10.2018 00:00:00 3,3 2,6 - 2 1 W 1037,6 16 0,0
22.10.2018 23:00:00 3,1 1,9 - 2 1 SE 1038,0 22 0,0
22.10.2018 22:00:00 4,1 3,0 - 4 2 WSW 1038,4 27 0,0
22.10.2018 21:00:00 3,3 2,1 - 2 1 ESE 1038,2 25 0,0
22.10.2018 20:00:00 4,1 2,3 - 5 3 S 1038,1 10 0,0
22.10.2018 19:00:00 7,3 3,2 - 9 5 NW 1038,2 10 0,0
22.10.2018 18:00:00 10,6 2,9 - 8 4 NNW 1037,4 10 0,0
22.10.2018 17:00:00 12,2 3,0 - 9 5 N 1037,1 10 0,0
22.10.2018 16:00:00 12,8 3,8 - 18 10 N 1037,7 10 0,0
22.10.2018 15:00:00 12,8 2,8 - 18 10 N 1037,2 10 0,0
22.10.2018 14:00:00 13,0 4,2 - 18 10 N 1037,7 10 0,0
22.10.2018 13:00:00 12,7 3,5 - 18 10 N 1037,5 10 0,0
22.10.2018 12:00:00 11,9 3,9 - 21 11 N 1037,6 10 0,0
22.10.2018 11:00:00 10,5 3,5 - 21 11 N 1037,5 10 0,0
22.10.2018 10:00:00 8,7 3,8 14,0 13 7 N 1037,8 10 0,0
22.10.2018 09:00:00 6,8 3,4 - 9 5 NNW 1037,3 10 0,0
22.10.2018 08:00:00 4,8 3,2 - 9 5 NNW 1036,4 10 0,0
22.10.2018 07:00:00 5,4 3,4 - 8 4 NNW 1035,5 10 0,0
22.10.2018 06:00:00 6,1 3,9 - 8 4 NNW 1035,0 28 0,0
22.10.2018 05:00:00 8,3 4,5 - 13 7 N 1034,3 29 0,0
22.10.2018 04:00:00 9,9 5,4 - 16 9 N 1033,4 35 0,0
22.10.2018 03:00:00 11,1 5,9 - 18 10 N 1032,7 35 0,0
22.10.2018 02:00:00 11,4 7,1 - 16 9 NNW 1032,3 35 0,0
22.10.2018 01:00:00 11,8 7,6 - 18 10 N 1031,7 35 0,0
22.10.2018 00:00:00 11,8 8,2 - 15 8 NNW 1031,2 30 0,0
21.10.2018 23:00:00 12,4 11,0 - 15 8 NNW 1030,3 15 0,0
21.10.2018 22:00:00 15,0 12,1 - 11 6 NNW 1029,1 35 0,0
21.10.2018 21:00:00 13,7 12,0 - 5 3 NW 1028,5 23 0,0
21.10.2018 20:00:00 12,4 11,4 - 4 2 - 1028,3 10 0,0
21.10.2018 19:00:00 13,6 11,0 - 8 4 WNW 1027,6 10 0,0
21.10.2018 18:00:00 15,4 10,8 - 9 5 NW 1026,9 10 0,0
21.10.2018 17:00:00 17,5 10,7 - 8 4 W 1026,4 10 0,0
21.10.2018 16:00:00 18,3 9,4 - 15 8 W 1026,4 30 0,0
21.10.2018 15:00:00 18,5 10,7 - 16 9 SW 1026,6 10 0,0
21.10.2018 14:00:00 17,7 10,7 - 11 6 W 1027,3 10 0,0
21.10.2018 13:00:00 16,8 10,3 - 11 6 W 1027,7 10 0,0
21.10.2018 12:00:00 16,0 10,8 - 13 7 WSW 1028,1 10 0,0
21.10.2018 11:00:00 14,1 11,2 - 8 4 W 1028,6 10 0,0
21.10.2018 10:00:00 11,3 11,3 14,2 2 1 - 1028,7 10 0,0
21.10.2018 09:00:00 6,5 6,4 - 2 1 SW 1028,9 9 0,0
21.10.2018 08:00:00 4,2 4,1 - 2 1 SSW 1028,7 5 0,0
21.10.2018 07:00:00 3,8 3,6 - 2 1 SW 1028,6 15 0,0
21.10.2018 06:00:00 4,2 4,1 - 4 2 SSW 1028,8 2,5 0,0
21.10.2018 05:00:00 4,7 4,6 - 2 1 SSW 1029,0 1,9 0,0
21.10.2018 04:00:00 5,0 5,0 - 2 1 W 1029,3 1,1 0,0
21.10.2018 03:00:00 5,1 5,0 - 2 1 WSW 1029,8 2,7 0,0
21.10.2018 02:00:00 5,8 5,7 - 2 1 SSW 1030,1 2,2 0,0
21.10.2018 01:00:00 6,7 6,5 - 0 0 N 1030,4 0,3 0,0
21.10.2018 00:00:00 7,0 6,9 - 4 2 SSW 1030,6 6 0,0
20.10.2018 23:00:00 8,0 7,7 - 2 1 SW 1031,0 16 0,0
20.10.2018 22:00:00 8,1 7,6 - 0 0 N 1031,0 16 0,0
20.10.2018 21:00:00 8,8 8,4 - 4 2 SW 1031,2 14 0,0
20.10.2018 20:00:00 9,8 9,3 - 5 3 SSW 1031,2 10 0,0
20.10.2018 19:00:00 11,1 9,7 - 5 3 SSW 1030,8 10 0,0
20.10.2018 18:00:00 13,9 9,7 - 8 4 SSW 1030,5 10 0,0
20.10.2018 17:00:00 16,8 9,6 - 11 6 WSW 1030,3 10 0,0
20.10.2018 16:00:00 17,5 9,8 - 13 7 WSW 1030,5 10 0,0
20.10.2018 15:00:00 17,8 9,8 - 11 6 SSW 1030,9 10 0,0
20.10.2018 14:00:00 17,4 10,7 - 13 7 SW 1031,2 10 0,0
20.10.2018 13:00:00 16,7 10,0 - 9 5 SSW 1031,7 10 0,0
20.10.2018 12:00:00 15,4 9,6 - 5 3 - 1032,5 10 0,0
20.10.2018 11:00:00 13,9 9,6 - 2 1 - 1032,5 10 0,0
20.10.2018 10:00:00 9,6 8,8 14,2 2 1 - 1032,1 10 0,0
20.10.2018 09:00:00 4,6 4,4 - 0 0 N 1032,5 10 0,0
20.10.2018 08:00:00 2,4 2,2 - 4 2 SSE 1032,1 10 0,0
20.10.2018 07:00:00 2,8 2,7 - 0 0 N 1031,3 14 0,0
20.10.2018 06:00:00 2,4 2,1 - 4 2 S 1031,2 20 0,0
20.10.2018 05:00:00 3,2 2,8 - 2 1 NW 1030,5 16 0,0
20.10.2018 04:00:00 3,4 3,2 - 0 0 N 1029,8 15 0,0
20.10.2018 03:00:00 3,5 3,2 - 2 1 SSW 1029,8 20 0,0
20.10.2018 02:00:00 2,8 2,1 - 2 1 WSW 1029,8 30 0,0
20.10.2018 01:00:00 4,1 4,0 - 2 1 SSW 1029,9 17 0,0
20.10.2018 00:00:00 4,3 4,1 - 4 2 WSW 1029,5 22 0,0
19.10.2018 23:00:00 4,2 3,6 - 2 1 S 1029,4 21 0,0
19.10.2018 22:00:00 4,7 4,3 - 5 3 SW 1028,8 19 0,0
19.10.2018 21:00:00 5,8 5,4 - 5 3 SW 1028,4 10 0,0
19.10.2018 20:00:00 6,4 5,9 - 5 3 SW 1028,5 10 0,0
19.10.2018 19:00:00 9,2 6,5 - 4 2 - 1027,7 10 0,0
19.10.2018 18:00:00 12,6 7,3 - 9 5 NW 1027,0 10 0,0
19.10.2018 17:00:00 14,5 7,2 - 5 3 - 1026,4 10 0,0
19.10.2018 16:00:00 14,9 6,5 - 8 4 NW 1026,3 10 0,0
19.10.2018 15:00:00 14,9 6,6 - 8 4 N 1026,1 10 0,0
19.10.2018 14:00:00 14,6 6,6 - 11 6 N 1026,5 10 0,0
19.10.2018 13:00:00 13,7 6,7 - 8 4 N 1026,7 10 0,0
19.10.2018 12:00:00 11,8 7,3 - 8 4 NE 1026,8 10 0,0
19.10.2018 11:00:00 8,6 6,7 - 2 1 - 1027,1 10 0,0
19.10.2018 10:00:00 7,1 6,4 14,4 2 1 - 1027,2 10 0,0
19.10.2018 09:00:00 4,1 4,0 - 4 2 SW 1026,9 8 0,2
19.10.2018 08:00:00 1,5 1,2 - 0 0 N 1026,8 10 0,0
19.10.2018 07:00:00 1,9 1,7 - 4 2 SW 1025,9 5 0,0
19.10.2018 06:00:00 1,8 1,5 - 0 0 N 1026,3 11 0,0
19.10.2018 05:00:00 2,7 2,6 - 0 0 N 1026,5 13 0,0
19.10.2018 04:00:00 2,6 2,4 - 2 1 WSW 1026,5 12 0,0
19.10.2018 03:00:00 2,6 2,4 - 4 2 SW 1026,6 16 0,0
19.10.2018 02:00:00 3,6 3,4 - 0 0 N 1026,7 14 0,0
19.10.2018 01:00:00 4,4 4,4 - 5 3 SW 1026,8 19 0,0
19.10.2018 00:00:00 5,9 5,8 - 4 2 SW 1026,8 5 0,0
18.10.2018 23:00:00 6,8 5,6 - 5 3 E 1026,8 29 0,0
18.10.2018 22:00:00 9,6 7,7 - 8 4 NE 1026,9 29 0,0
18.10.2018 21:00:00 10,2 7,9 - 11 6 NNE 1026,8 10 0,0
18.10.2018 20:00:00 10,8 8,0 - 11 6 NE 1026,6 10 0,0
18.10.2018 19:00:00 12,1 8,4 - 11 6 NNE 1026,4 10 0,0
18.10.2018 18:00:00 13,4 8,7 - 15 8 NNE 1026,1 10 0,0
18.10.2018 17:00:00 14,1 8,4 - 15 8 NNE 1025,8 10 0,0
18.10.2018 16:00:00 15,1 8,7 - 18 10 ENE 1026,1 10 0,0
18.10.2018 15:00:00 15,0 9,3 - 15 8 NE 1026,4 10 0,0
18.10.2018 14:00:00 14,4 9,8 - 15 8 NNE 1026,8 10 0,0
18.10.2018 13:00:00 13,8 8,5 - 18 10 NE 1027,0 10 0,0
18.10.2018 12:00:00 13,2 10,2 - 15 8 N 1027,6 10 0,0
18.10.2018 11:00:00 11,6 9,8 - 15 8 NNE 1027,7 10 0,0
18.10.2018 10:00:00 10,9 9,7 14,4 15 8 NE 1027,5 10 0,0
18.10.2018 09:00:00 9,8 9,0 - 15 8 NE 1027,2 8 0,0
18.10.2018 08:00:00 9,0 8,7 - 8 4 NNE 1026,4 10 0,0
18.10.2018 07:00:00 9,0 8,5 - 8 4 N 1025,8 8 0,0
18.10.2018 06:00:00 9,7 9,2 - 8 4 NNW 1025,7 10 0,0
18.10.2018 05:00:00 11,1 10,0 - 5 3 N 1025,3 13 0,0
18.10.2018 04:00:00 12,1 10,8 - 9 5 NNE 1025,3 13 0,0
18.10.2018 03:00:00 12,5 11,1 - 9 5 N 1025,2 14 0,0
18.10.2018 02:00:00 12,6 11,6 - 8 4 NNE 1024,8 13 0,0
18.10.2018 01:00:00 12,6 11,9 - 5 3 N 1024,8 14 0,0
18.10.2018 00:00:00 12,9 11,6 - 5 3 NNE 1024,4 17 0,0
17.10.2018 23:00:00 13,3 12,5 - 4 2 N 1024,1 17 0,0
17.10.2018 22:00:00 13,5 12,9 - 4 2 N 1023,5 15 0,0
17.10.2018 21:00:00 13,6 13,0 - 4 2 NNW 1022,9 14 0,0
17.10.2018 20:00:00 13,7 12,7 - 5 3 N 1022,1 10 0,0
17.10.2018 19:00:00 14,0 12,3 - 9 5 NNE 1021,3 10 0,0
17.10.2018 18:00:00 13,5 12,6 - 11 6 N 1020,8 7 0,0
17.10.2018 17:00:00 14,1 12,7 - 4 2 N 1020,2 8 0,2
17.10.2018 16:00:00 14,8 13,1 - 4 2 - 1020,0 10 0,0
17.10.2018 15:00:00 14,7 12,7 - 2 1 - 1019,7 10 0,0
17.10.2018 14:00:00 13,7 12,9 - 5 3 - 1019,6 4,0 0,0
17.10.2018 13:00:00 13,4 12,5 - 4 2 - 1019,6 4,5 0,4
17.10.2018 12:00:00 13,7 13,4 - 4 2 - 1019,5 1,7 1,2
17.10.2018 11:00:00 13,7 13,4 - 8 4 SSW 1019,1 4,5 0,2
17.10.2018 10:00:00 13,0 12,9 14,4 4 2 S 1018,9 4,6 0,6
17.10.2018 09:00:00 12,4 12,2 - 8 4 SSE 1018,4 2,8 1,0
17.10.2018 08:00:00 11,8 11,6 - 5 3 SSE 1018,1 4,0 0,2
17.10.2018 07:00:00 11,7 11,2 - 8 4 SSE 1017,7 6 0,0
17.10.2018 06:00:00 11,5 10,7 - 5 3 S 1017,5 23 0,0

tt = Température de l'air
td = dewpoint
tt -100cm = Température de l'air -100cm
ff = Vitesse du vent
dd = Direction du vent
ppp = reduced air pressure
vv = visibility
rr = Quantités de précipitations

stations d'obs. à proximité